Regional Weather Roundup
Issued by NWS Upton, NY

Current Version | Previous Version | Graphics & Text | Print | Product List | Glossary Off
Versions: 1 2 3 4 5 6 7 8 9 10 11 12 13 14 15 16 17 18 19 20 21 22 23 24 25 26 27

000
ASUS41 KOKX 251908
RWROKX

REGIONAL WEATHER ROUNDUP
NATIONAL WEATHER SERVICE NEW YORK NY
300 PM EDT SAT MAR 25 2017

NOTE: "FAIR" INDICATES FEW OR NO CLOUDS BELOW 12,000 FEET WITH NO
SIGNIFICANT WEATHER AND/OR OBSTRUCTIONS TO VISIBILITY.

NYZ071-072-176-178-NJZ106-104-252000-
NEW YORK CITY METRO AREA

CITY           SKY/WX    TMP DP  RH WIND       PRES   REMARKS
Central Park   PTSUNNY   58  41  53 E9        30.20F
Wall St Helipt CLOUDY    55  43  62 NE14      30.19S
LaGuardia APRT PTSUNNY   56  41  57 NE10      30.18F
Kennedy INTL   LGT RAIN  58  47  66 N9        30.19S
Breezy Point     N/A     55 N/A N/A NE8         N/A
Newark/Liberty CLOUDY    61  42  49 NE10      30.18R
Teterboro      PTSUNNY   56  41  57 N9        30.18S
$$

NYZ177-179-078>081-252000-
LONG ISLAND NEW YORK

CITY           SKY/WX    TMP DP  RH WIND       PRES   REMARKS
Jones Beach      N/A     50 N/A N/A E8          N/A
Matinecock PT    N/A     46 N/A N/A E16         N/A
Farmingdale    CLOUDY    57  41  55 NE9       30.20R
MacArthur/ISP  CLOUDY    53  41  63 S7        30.21R
Shirley        PTSUNNY   51  40  65 SE8       30.22R
Westhampton    CLOUDY    50  38  63 E7        30.23R
East Hampton   CLOUDY    48  37  67 E7        30.21R
Montauk        NOT AVBL
$$

NYZ052-065-067-252000-
HUDSON VALLEY

CITY           SKY/WX    TMP DP  RH WIND       PRES   REMARKS
White Plains   LGT RAIN  54  41  61 N6        30.19S
Newburgh       CLOUDY    41  37  87 NE9       30.28R
Montgomery     CLOUDY    40  35  83 NE18      30.26R WCI  31
Poughkeepsie   CLOUDY    38  33  82 N14       30.29R WCI  30
Albany         LGT RAIN  35  31  85 N7        30.32S FOG     WCI  29
$$

NJZ001-105-106-008-010-013-015-019>022-104-252000-
NEW JERSEY

CITY           SKY/WX    TMP DP  RH WIND       PRES   REMARKS
Newark/Liberty CLOUDY    61  42  49 NE10      30.18R
Teterboro      PTSUNNY   56  41  57 N9        30.18S
Caldwell       CLOUDY    56  41  57 VRB7      30.19S
Somerville     LGT RAIN  60  50  69 S5        30.15S
Linden         MOCLDY    59  43  55 CALM      30.18S
Sussex         MOSUNNY   47  40  76 NE15      30.23S
Andover          N/A     47  38  71 MISG      30.21R
Trenton        CLOUDY    65  50  58 NE3       30.16R
Millville      CLOUDY    80  53  39 W14       30.13F
Atlantic City  SUNNY     80  50  34 W9        30.12F
Wrightstown    MOSUNNY   73  51  47 NW6       30.12S
Toms River     PTSUNNY   67  48  50 E5        30.16S
Belmar         PTSUNNY   60  46  59 E7        30.18S
$$

PAZ047>061-062-071-252000-
EASTERN PENNSYLVANIA

CITY           SKY/WX    TMP DP  RH WIND       PRES   REMARKS
Philadelphia   PTSUNNY   76  50  40 S3        30.14S
Allentown      LGT RAIN  67  51  56 CALM      30.16R
Scranton       CLOUDY    50  42  74 N16       30.24R
$$

CTZ002-004>006-009-010-012-RIZ004-006-007-MAZ004-011-015-252000-
SOUTHERN NEW ENGLAND
 IN CT

CITY           SKY/WX    TMP DP  RH WIND       PRES   REMARKS
Bradley INTL   DRIZZLE   38  37  97 N13       30.30R FOG     WCI  30
Hartford       CLOUDY    40  37  89 N10       30.30R FOG     WCI  33
Danbury        CLOUDY    50  40  68 N12       30.24R
Wtrbury/Oxford CLOUDY    45  34  65 NE12      30.24S
Bridgeport     CLOUDY    54  38  54 N10       30.23R
Meriden        CLOUDY    45  37  73 N12G17    30.27R
New Haven      CLOUDY    50  37  61 N14       30.24R
Chester        NOT AVBL
Groton         CLOUDY    45  38  76 E5        30.24R
Wilimantic     CLOUDY    43  40  89 NE5       30.28R FOG

 IN RI

CITY           SKY/WX    TMP DP  RH WIND       PRES   REMARKS
Providence     LGT RAIN  41  37  86 N16       30.28R FOG
Block Island   CLOUDY    42  37  82 NE9       30.25R
Westerly       CLOUDY    50  38  63 N8        30.25R
 IN MA

CITY           SKY/WX    TMP DP  RH WIND       PRES   REMARKS
Boston         LGT RAIN  37  36  96 N8        30.31R FOG     WCI  31
Worcester      CLOUDY    34  32  92 N8        30.27R WCI  27
Westfield      CLOUDY    38  35  89 N12       30.31R WCI  30
Provincetown   CLOUDY    39  33  79 NE12      30.27S WCI  32
Nantucket      CLOUDY    44  34  67 N18       30.22R
$$

ANZ330-335-338-340-345-350-353-355-252000-
COASTAL MARINE OBSERVATIONS


STATION/POSITION TIME  SKY/WX   TEMP    WIND        PRES    VSBY  WAVE
                                AIR SEA DIR/SP/G                  HT/PER
                 (UTC)          (F)     (DEG/KT/KT) (MB)    (MI)  (FT/S)
NY HARB ENTRANCE 1750            49 43   40/  2/  4 1022.1          4/ 7
20 S FIRE ISLAND 1850            44 41   40/  8/ 10 1022.0          5/ 8
GREAT SOUTH BAY  NOT AVBL
23 SSW MONTAUK P 1750            43 43              1023.8          6/ 8
15 E BARNEGAT LI 1830               44                N/A           5/ 7
HUDSON CANYON    1850            47 46  220/  6/  6 1021.8          6/ 8
KINGS POINT      1848            54 39              1021.9
EXECUTION ROCKS  NOT AVBL
CENTRAL LI SOUND 1830            42     140/  6/  6   N/A           0
EASTERN LI SOUND NOT AVBL
ROBBINS REEF     1848            56      70/  9/  9 1022.0
$$


>>>>>>>>>>>>>>>>>>>>>>>>>>>> KEY <<<<<<<<<<<<<<<<<<<<<<<<<<<
>                                                          <
>     SKY/WX - Sky Condition/Present Weather               <
>     TMP    - Temperature in Fahrenheit                   <
>     DP     - Dew Point in Fahrenheit                     <
>     RH     - Relative Humidity in Percent                <
>     WIND   - Direction (from) and Speed in MPH           <
>     PRES   - Mean Sea Level Pressure (inches of Hg)      <
>     WCI    - Wind Chill Index                            <
>     VSB    - VISIBILITY IN MILES                         <
>     HX     - HEAT INDEX                                  <
>     TC     - TEMPERATURE IN CELSIUS                      <
>     VRB    - VARIABLE WIND DIRECTION                     <
>                                                          <
>>>>>>>>>>>>>>>>>>>>>>>>>>>> KEY <<<<<<<<<<<<<<<<<<<<<<<<<<<




USA.gov is the U.S. government's official web portal to all federal, state and local government web resources and services.